DW2099 Weather Reports


time (UTC)temp
F
wind
direction
speed
knots
gust
knots
rain 1hr
in
rain 24hr
in
rain mn
in
humidity
%
barometer
mb
20260506204517 75 135 3.5 9.6 0.00 0.01 0.01 77 1011.3
20260506203517 77 113 3.5 8.7 0.00 0.01 0.01 75 1011.2
20260506202537 79 135 3.5 7.8 0.00 0.01 0.01 74 1011.1
20260506201517 82 135 2.6 7.8 0.00 0.01 0.01 72 1010.9
20260506200517 83 158 1.7 5.2 0.00 0.01 0.01 75 1010.9
20260506195518 83 113 0.9 4.3 0.00 0.01 0.01 73 1010.9
20260506194538 83 113 1.7 5.2 0.00 0.01 0.01 72 1011.0
20260506193517 82 135 1.7 4.3 0.00 0.01 0.01 74 1010.9
20260506192517 82 113 2.6 7.0 0.00 0.01 0.01 72 1011.0
20260506191519 82 180 1.7 4.3 0.00 0.01 0.01 75 1011.2
20260506190517 81 135 1.7 5.2 0.00 0.01 0.01 73 1011.2
20260506185517 81 135 1.7 7.0 0.00 0.01 0.01 72 1011.1
20260506184517 81 203 0.9 2.6 0.00 0.01 0.01 75 1010.9
20260506183517 80 113 1.7 3.5 0.00 0.01 0.01 76 1010.9
20260506182517 79 113 1.7 4.3 0.00 0.01 0.01 75 1011.0
20260506181518 77 315 0.9 3.5 0.00 0.01 0.01 79 1011.0
20260506180517 75 315 0.9 1.7 0.00 0.01 0.01 80 1011.1
20260506175517 74 90 2.6 6.1 0.00 0.01 0.01 81 1011.3
20260506174517 72 90 0.9 2.6 0.00 0.01 0.01 85 1011.1
20260506173517 70 158 1.7 4.3 0.00 0.01 0.01 86 1011.5
20260506172518 68 225 1.7 5.2 0.00 0.01 0.01 86 1012.2
20260506171517 68 180 2.6 6.1 0.00 0.01 0.01 87 1012.4
20260506170517 68 113 2.6 7.0 0.00 0.01 0.01 86 1012.6
20260506165517 69 135 3.5 10.4 0.00 0.01 0.01 86 1012.5
20260506164517 70 158 4.3 14.8 0.00 0.01 0.01 84 1012.5
20260506163517 76 113 5.2 12.2 0.00 0.01 0.01 78 1012.6
20260506162517 80 158 0.9 3.5 0.00 0.01 0.01 87 1012.4
20260506161517 79 113 0.9 3.5 0.00 0.01 0.01 88 1012.3
20260506160517 79 180 0.9 2.6 0.00 0.01 0.01 89 1012.4
20260506155537 79 0.0 1.7 0.00 0.01 0.01 90 1012.0
20260506154517 78 0.0 0.9 0.00 0.01 0.01 90 1011.7
20260506153517 78 0.0 0.9 0.00 0.01 0.01 91 1011.2
20260506152517 78 0.0 0.9 0.00 0.01 0.01 91 1011.3
20260506151517 77 0.0 1.7 0.00 0.01 0.01 91 1011.0
20260506150517 77 0.0 0.9 0.00 0.01 0.01 92 1010.8
20260506145517 77 0.0 0.9 0.00 0.01 0.01 92 1010.6
20260506144517 77 0.0 0.0 0.00 0.01 0.01 92 1010.6
20260506143517 77 0.0 0.0 0.00 0.01 0.01 92 1010.7
20260506142517 77 0.0 0.0 0.00 0.01 0.01 92 1010.8
20260506141517 76 0.0 0.0 0.00 0.01 0.01 93 1010.6
20260506140517 76 0.0 2.6 0.00 0.01 0.01 93 1010.2
20260506135516 76 0.0 0.9 0.00 0.01 0.01 93 1009.9
20260506134517 76 0.0 0.0 0.00 0.01 0.01 93 1009.7
20260506133517 76 0.0 0.9 0.00 0.01 0.01 94 1009.7
20260506132517 75 0.0 1.7 0.01 0.01 0.01 94 1009.7
20260506131517 75 0.0 2.6 0.01 0.01 0.01 94 1009.7
20260506130516 75 0.0 0.0 0.01 0.01 0.01 94 1009.7
20260506125517 75 0.0 1.7 0.01 0.01 0.01 94 1009.8
20260506124516 75 0.0 0.9 0.01 0.01 0.01 93 1009.9
20260506123517 75 0.0 0.9 0.01 0.01 0.01 93 1009.8
20260506122517 75 0.0 0.9 0.00 0.00 0.00 92 1009.7
20260506121537 75 0.0 0.0 0.00 0.00 0.00 92 1009.7
20260506120516 75 0.0 0.0 0.00 0.00 0.00 92 1009.7
20260506115516 75 0.0 0.0 0.00 0.00 0.00 92 1009.8
20260506114516 76 0.0 0.0 0.00 0.00 0.00 92 1009.6
20260506113517 76 0.0 0.0 0.00 0.00 0.00 91 1009.7
20260506112518 76 0.0 0.0 0.00 0.00 0.00 91 1009.5
20260506111517 76 0.0 0.9 0.00 0.00 0.00 91 1009.3
20260506110517 76 0.0 0.9 0.00 0.00 0.00 91 1009.3
20260506105537 76 0.0 1.7 0.00 0.00 0.00 91 1009.2
20260506104517 76 0.0 1.7 0.00 0.00 0.00 91 1009.2
20260506103517 76 0.0 0.9 0.00 0.00 0.00 91 1009.1
20260506102516 76 0.0 1.7 0.00 0.00 0.00 91 1009.0
20260506101516 76 0.0 1.7 0.00 0.00 0.00 91 1009.0
20260506100516 76 293 0.9 2.6 0.00 0.00 0.00 91 1008.7
20260506095516 76 293 0.9 6.1 0.00 0.00 0.00 91 1008.6
20260506094517 76 293 0.9 5.2 0.00 0.00 0.00 91 1008.5
20260506093516 76 0.0 1.7 0.00 0.00 0.00 91 1008.4
20260506092516 76 315 0.9 2.6 0.00 0.00 0.00 91 1008.4
20260506091617 76 315 0.9 3.5 0.00 0.00 0.00 91 1008.2
20260506090516 76 315 1.7 5.2 0.00 0.00 0.00 91 1008.4
20260506085516 76 315 1.7 3.5 0.00 0.00 0.00 91 1008.4
20260506084516 76 315 0.9 4.3 0.00 0.00 0.00 91 1008.4
20260506083516 76 293 0.9 2.6 0.00 0.00 0.00 91 1008.5
20260506082516 76 315 0.9 2.6 0.00 0.00 0.00 91 1008.3
20260506081536 76 315 1.7 4.3 0.00 0.00 0.00 92 1008.4
20260506080517 76 0.0 1.7 0.00 0.00 0.00 92 1008.5
20260506073516 75 315 0.9 3.5 0.00 0.00 0.00 92 1008.6
20260506072556 75 293 0.9 2.6 0.00 0.00 0.00 92 1008.8
20260506071516 75 315 0.9 4.3 0.00 0.00 0.00 92 1008.9
20260506070516 75 0.0 1.7 0.00 0.00 0.00 92 1008.9
20260506062516 75 315 0.9 3.5 0.00 0.00 0.00 91 1008.9
20260506061516 75 293 0.9 4.3 0.00 0.00 0.00 91 1008.9
20260506060536 75 293 0.9 3.5 0.00 0.00 0.00 91 1009.0
20260506050516 76 315 0.9 2.6 0.00 0.00 0.00 90 1009.0
20260506044516 76 315 0.9 2.6 0.00 0.00 0.00 90 1009.0
20260506043516 76 293 0.9 2.6 0.00 0.00 0.00 89 1008.9
20260506042516 76 315 1.7 4.3 0.00 0.00 0.00 89 1008.8
20260506041536 76 315 1.7 4.3 0.00 0.00 0.00 89 1008.9
20260506040516 76 315 0.9 2.6 0.00 0.00 0.00 88 1008.9
20260506035516 77 293 1.7 4.3 0.00 0.00 0.00 88 1008.7
20260506034516 77 315 0.9 3.5 0.00 0.00 0.00 88 1008.4
20260506033516 77 315 1.7 4.3 0.00 0.00 0.00 88 1008.3
20260506032516 77 293 0.9 3.5 0.00 0.00 0.00 88 1008.3
20260506031516 77 293 0.9 3.5 0.00 0.00 0.00 87 1008.2
20260506030516 77 315 0.9 3.5 0.00 0.00 0.00 87 1008.0
20260506025516 78 293 0.9 2.6 0.00 0.00 0.00 86 1007.8
20260506024516 78 293 0.9 2.6 0.00 0.00 0.00 86 1007.6
20260506023516 78 315 0.9 3.5 0.00 0.00 0.00 86 1007.7
20260506022516 78 293 1.7 3.5 0.00 0.00 0.00 85 1007.4
20260506021516 79 315 1.7 5.2 0.00 0.00 0.00 85 1007.0
20260506020516 79 315 1.7 4.3 0.00 0.00 0.00 84 1007.3
20260506015516 79 315 1.7 4.3 0.00 0.00 0.00 84 1007.1
20260506014516 80 315 0.9 5.2 0.00 0.00 0.00 83 1007.1
20260506013516 80 315 1.7 4.3 0.00 0.00 0.00 83 1007.0
20260506012516 81 293 0.9 3.5 0.00 0.00 0.00 82 1006.9
20260506011516 81 293 0.9 3.5 0.00 0.00 0.00 82 1006.9
20260506010536 81 315 1.7 4.3 0.00 0.00 0.00 82 1006.8
20260506005536 81 315 0.9 2.6 0.00 0.00 0.00 81 1006.5
20260506004516 82 293 0.9 5.2 0.00 0.00 0.00 80 1006.4
20260506003516 82 293 1.7 5.2 0.00 0.00 0.00 80 1006.3
20260506002516 82 315 1.7 6.1 0.00 0.00 0.00 79 1006.2
20260506001517 83 315 1.7 4.3 0.00 0.00 0.00 79 1006.0
20260506000516 83 315 0.9 3.5 0.00 0.00 0.00 78 1006.2
20260505235516 84 293 0.9 2.6 0.00 0.00 0.00 77 1006.0
20260505234516 84 315 1.7 5.2 0.00 0.00 0.00 76 1005.9
20260505233556 85 293 1.7 6.1 0.00 0.00 0.00 75 1005.9
20260505232516 85 293 0.9 7.0 0.00 0.00 0.00 74 1006.0
20260505231515 85 293 0.9 4.3 0.00 0.00 0.00 74 1006.0
20260505230536 85 315 0.9 6.1 0.00 0.00 0.00 73 1005.9
20260505225536 85 293 0.9 3.5 0.00 0.00 0.00 74 1006.0
20260505224516 85 293 1.7 5.2 0.00 0.00 0.00 74 1006.0
20260505223515 85 293 1.7 5.2 0.00 0.00 0.00 74 1005.8
20260505222515 85 270 0.9 2.6 0.00 0.00 0.00 74 1006.1
20260505221556 85 293 0.9 3.5 0.00 0.00 0.00 74 1006.0
20260505220517 85 293 1.7 4.3 0.00 0.00 0.00 74 1006.2
20260505215516 86 293 2.6 6.1 0.00 0.00 0.00 72 1006.3
20260505214518 85 338 0.9 2.6 0.00 0.00 0.00 74 1006.3
20260505213517 84 315 2.6 7.8 0.00 0.00 0.00 74 1006.3
20260505212518 84 315 2.6 5.2 0.00 0.00 0.00 74 1006.4
20260505211517 85 315 1.7 5.2 0.00 0.00 0.00 75 1006.6
20260505210517 85 270 0.9 5.2 0.00 0.00 0.00 74 1006.7
20260505205518 84 315 1.7 5.2 0.00 0.00 0.00 75 1007.0